EW8728 Weather Reports


Display with metric or nautical units.
time (UTC)temp
F
wind
direction
speed
MPH
gust
MPH
rain 1hr
in
rain 24hr
in
rain mn
in
humidity
%
barometer
mb
20260502181549 70 117 0.0 0.0 0.00 0.00 0.00 45 1014.3
20260502163043 78 100 0.0 0.0 0.00 0.00 0.00 33 1014.4
20260502161543 79 106 0.0 0.0 0.00 0.00 0.00 34 1014.5
20260502151524 78 92 0.0 0.0 0.00 0.00 0.00 35 1015.2
20260502123045 78 32 0.0 0.0 0.00 0.00 0.00 41 1017.7
20260502121541 77 36 0.0 0.0 0.00 0.00 0.00 42 1017.8
20260502114538 75 22 0.0 0.0 0.00 0.00 0.00 46 1018.5
20260502113033 74 216 0.0 0.0 0.00 0.00 0.00 48 1018.8
20260502111527 73 355 0.0 0.0 0.00 0.00 0.00 51 1019.0
20260502110024 71 9 0.0 0.0 0.00 0.00 0.00 51 1019.3
20260502104519 70 344 0.0 0.0 0.00 0.00 0.00 54 1019.6
20260502103036 68 325 0.0 0.0 0.00 0.00 0.00 55 1019.7
20260502101511 67 26 0.0 0.0 0.00 0.00 0.00 55 1020.0
20260502090109 62 360 0.0 0.0 0.00 0.00 0.00 61 1020.9
20260502071536 57 291 0.0 0.0 0.00 0.00 0.00 66 1021.4
20260502070033 57 291 0.0 0.0 0.00 0.00 0.00 70 1021.4
20260502064536 55 291 0.0 0.0 0.00 0.00 0.00 76 1021.4
20260502063027 53 291 0.0 0.0 0.00 0.00 0.00 79 1021.4
20260502061523 52 291 0.0 0.0 0.00 0.00 0.00 77 1021.5
20260502060019 51 291 0.0 0.0 0.00 0.00 0.00 73 1021.5
20260502054515 51 291 0.0 0.0 0.00 0.00 0.00 76 1021.4
20260502053014 51 291 0.0 0.0 0.00 0.00 0.00 75 1021.4
20260502051515 50 291 0.0 0.0 0.00 0.00 0.00 75 1021.4
20260502050011 50 291 0.0 0.0 0.00 0.00 0.00 75 1021.4
20260502044508 50 291 0.0 0.0 0.00 0.00 0.00 74 1021.3
20260502043006 50 291 0.0 0.0 0.00 0.00 0.00 74 1021.2
20260502041505 50 291 0.0 0.0 0.00 0.00 0.00 74 1021.3
20260502040007 50 291 0.0 0.0 0.00 0.00 0.00 74 1021.2
20260502034501 51 291 0.0 0.0 0.00 0.00 0.00 72 1021.2
20260502033100 51 291 0.0 0.0 0.00 0.00 0.00 70 1021.2
20260502031559 50 291 0.0 0.0 0.00 0.00 0.00 65 1021.2
20260502030110 50 291 0.0 0.0 0.00 0.00 0.00 70 1021.3
20260502024557 50 291 0.0 0.0 0.00 0.00 0.00 67 1021.3
20260502023100 51 291 0.0 0.0 0.00 0.00 0.00 69 1021.2
20260502021557 51 291 0.0 0.0 0.00 0.00 0.00 68 1021.2
20260502020054 51 291 0.0 0.0 0.00 0.00 0.00 67 1021.3
20260502014552 50 291 0.0 0.0 0.00 0.00 0.00 62 1021.3
20260502013056 51 291 0.0 0.0 0.00 0.00 0.00 62 1021.3
20260502011549 51 291 0.0 0.0 0.00 0.00 0.00 61 1021.4
20260502010053 52 291 0.0 0.0 0.00 0.00 0.00 60 1021.3
20260502004544 53 291 0.0 0.0 0.00 0.00 0.00 58 1021.4
20260502003041 53 291 0.0 0.0 0.00 0.00 0.00 57 1021.5
20260502001541 53 291 0.0 0.0 0.00 0.00 0.00 54 1021.5
20260502000040 54 291 0.0 0.0 0.00 0.00 0.00 53 1021.4
20260501234537 54 291 0.0 0.0 0.00 0.00 0.00 52 1021.6
20260501233044 55 291 0.0 0.0 0.00 0.00 0.00 52 1021.6
20260501231534 55 291 0.0 0.0 0.00 0.00 0.00 51 1021.6
20260501230030 56 291 0.0 0.0 0.00 0.00 0.00 49 1021.6
20260501224527 57 291 0.0 0.0 0.00 0.00 0.00 48 1021.6
20260501223035 57 291 0.0 0.0 0.00 0.00 0.00 48 1021.5
20260501221529 57 291 0.0 0.0 0.00 0.00 0.00 48 1021.5
20260501220021 58 291 0.0 0.0 0.00 0.00 0.00 48 1021.5
20260501214527 57 291 0.0 0.0 0.00 0.00 0.00 45 1021.5
20260501213020 57 291 0.0 0.0 0.00 0.00 0.00 48 1021.5
20260501211520 57 291 0.0 0.0 0.00 0.00 0.00 47 1021.5
20260501210019 58 291 0.0 0.0 0.00 0.00 0.00 46 1021.6
20260501204519 58 291 0.0 0.0 0.00 0.00 0.00 45 1021.6
20260501203026 59 291 0.0 0.0 0.00 0.00 0.00 43 1021.7
20260501201517 58 291 0.0 0.0 0.00 0.00 0.00 42 1021.8
20260501200019 58 291 0.0 0.0 0.00 0.00 0.00 42 1021.7
20260501194516 59 291 0.0 0.0 0.00 0.00 0.00 40 1021.6
20260501193016 60 291 0.0 0.0 0.00 0.00 0.00 38 1021.5
20260501191516 60 291 0.0 0.0 0.00 0.00 0.00 40 1021.4
20260501190015 62 291 0.0 0.0 0.00 0.00 0.00 40 1021.2
20260501184515 64 291 0.0 0.0 0.00 0.00 0.00 39 1021.1
20260501183015 66 291 0.0 0.0 0.00 0.00 0.00 39 1020.9